Regional Weather Roundup
Issued by NWS New Orleans/Baton Rouge, LA

Home | Current Version | Previous Version | Text Only | Print | Product List | Glossary On
Versions: 1 2 3 4 5 6 7 8 9 10 11 12 13 14 15 16 17 18 19 20 21 22 23 24 25 26 27 28 29 30 31 32 33 34 35 36 37 38 39 40 41 42 43 44 45 46 47 48 49 50
000
ASUS44 KLIX 030510
RWRLIX
NEW ORLEANS REGIONAL WEATHER ROUNDUP
NATIONAL WEATHER SERVICE NEW ORLEANS LA
1200 AM CDT WED SEP 03 2014

NOTE: "FAIR" INDICATES FEW OR NO CLOUDS BELOW 12,000 FEET WITH NO
      SIGNIFICANT WEATHER AND/OR OBSTRUCTIONS TO VISIBILITY.
      SKY/WX - SKY CONDITION AND SIGNIFICANT WEATHER.
      TMP - AIR TEMPERATURE.     DP    - DEWPOINT TEMPERATURE.
      RH  - RELATIVE HUMIDITY.   PRES  - PRESSURE.
      HI  - HEAT INDEX.          WCI   - WIND CHILL INDEX.

*  THESE STATIONS ARE NOT NWS OR FAA STATIONS AND ARE NOT UNDER
   NWS QUALITY CONTROL.

LAZ038-040-048-061>063-065>067-069-030600-
SOUTHEAST LOUISIANA

CITY           SKY/WX    TMP DP  RH WIND       PRES   REMARKS
N.O. AUDUBON     N/A     73  73 100 MISG        N/A
N.O. INTL ARPT CLOUDY    75  72  90 E9        30.00F
N.O. LAKEFRONT LGT RAIN  77  71  82 E10       30.02F
N.O. DOWNTOWN* MOCLDY    75  68  78 NE5       30.02F
SLIDELL        LGT RAIN  74  72  93 E5        30.02F
BATON ROUGE    CLOUDY    74  72  93 NE3       30.00F
BOOTHVILLE     PTCLDY    80  77  90 CALM      30.04F
BELLE CHASSE   CLOUDY    76  70  82 E7        30.01F
BOGALUSA*        N/A     74  71  88 S15G22    29.98F
GALLIANO*      NOT AVBL
NEW ROADS*       N/A     74  73  95 SE5       30.02R
GONZALES*        N/A     74  74 100 SE5       29.99F
HAMMOND*       DRIZZLE   73  70  88 CALM      30.01F
HOUMA*         MOCLDY    77  71  81 NE6       30.01F
PORT FOURCHON* CLEAR     84  75  74 NE5       30.04F

$$

MSZ070-080>082-030600-
SOUTHERN MISSISSIPPI

CITY           SKY/WX    TMP DP  RH WIND       PRES   REMARKS
MCCOMB         CLOUDY    73  71  93 NW6       30.01R
GULFPORT       LGT RAIN  74  72  93 NW9       30.05F
BILOXI         LGT RAIN  75  72  88 VRB3      30.05F
PASCAGOULA     CLOUDY    75  70  84 W5        30.04F

$$

COASTAL OBSERVATIONS
LAKE AND NEARSHORE STATIONS

STATION/POSITION TIME  TEMP    WIND        PRES    WAVE
                       AIR SEA DIR/SP/G            HT/PER
                 (UTC) (F)     (DEG/KT/KT) (MB)    (FT/S)
PASCAGOULA       0500   78     310/  5/ 11 1017.0
WAVELAND YACHT   0500   74     330/  4/  7 1017.8
GRAND ISLE       0500   84 87   30/  4/  4 1017.9
SOUTHWEST PASS   0500   86 91   20/  4/  4 1017.5
NEW CANAL        0500   75 82   90/  3/  6 1017.1
SHELL BEACH      0500   77 81  350/ 16/ 20 1017.8

OFFSHORE STATIONS

STATION/POSITION TIME  TEMP    WIND        PRES    WAVE
                       AIR SEA DIR/SP/G            HT/PER
                 (UTC) (F)     (DEG/KT/KT) (MB)    (FT/S)
64 S DAUPHIN ISL 0447   84 86  250/  2/  4 1017.3

$$




USA.gov is the U.S. government's official web portal to all federal, state and local government web resources and services.